DELTA 1 DEB, 10765

Orbit data source: Space-Track

DELTA 1 DEB, 10765 is space debris in SSO originally from a launch on Thu, 29 Jul 1976 UTC launched from the Air Force Western Test Range (AFWTR). Debris objects in space refer to the collection of defunct objects orbiting the Earth. Examples of debris include non-operational satellites, rocket bodies, and fragments generated from explosions, collisions, or faulty payload assembly.

Loading next visibility...
Identifier
10765, 1976-077BN
Orbit
SSO
Country
Flag of USUS
Related business
Manufacturer
Unknown
Mission
Spacecraft
Bus & Motor
Unknown
Mass
Unknown
Launch date (UTC)
1976-07-29 (49 years ago)
Launch vehicle
Unknown
Launch site
Air Force Western Test Range (AFWTR)
Object type
Payload
Rocket body
Debris
Shape & HBR
Unknown shape, 0.5 m
Radar Cross Section
Medium (>0.1 m² and <1 m²)

Expand to show TLE details & history
Last TLE update: 19 hours ago

TLE from 19 hours ago
0 DELTA 1 DEB
1 10765U 76077BN  25292.31665616 -.00000013  00000-0  27444-3 0  9999
2 10765 102.0141 138.1765 0130901  72.4664  99.6684 12.16521748187267
Epoch: 2025-10-19T07:35Z
TLE epoch observation values (Epoch: 2025-10-19T07:35:59.092Z)
Latitude
6.18186°
Longitude
177.45969°
Altitude
1,628.542 km
Speed
7.049 km/s
True Right ascension
21h 17m 57s
True Declination
6° 08' 57"
Sunlit
Object was in daylight at epoch
Visualization orbit readout
Latitude
Unknown
Longitude
Unknown
Altitude
Unknown
Speed
Unknown
Apparent Right ascension
Unknown
Apparent Declination
Unknown
Sunlit
N/A
Visualization observer readout
Local Sidereal Time
21:39:30
Azimuth
Unknown
Elevation
Unknown
Doppler factor
Unknown
Orbital elements
Apogee altitude
1,709.837 km
Perigee altitude
1,500.829 km
Semi-major axis
7,983.47 km
Eccentricity
0.01309
Inclination
102.0141°
RAAN
138.1765°
Arg. of periapsis
72.4664°
True anomaly
101.14289°
Mean anomaly
99.6684°
Eccentric anomaly
100.40607°
Mean motion
3.04268 °/min
Orbital period
118.32 mins
BSTAR
0.00027444
Loading maneuver chart data...
Computing Atmospheric mass density...
Loading historical data...
Loading historical data...
Loading historical data...
Loading historical data...
Loading historical data...
Loading historical data...
Loading historical data...

Documentation

Showing up to 5 results
|